Flag for Austria Weather past 2 weeks in Hollabrunn, Lower Austria, Austria

Now
37 °F

Chilly.


Feels Like: 34 °F
Forecast: 30 / 37 °F
Wind: 3 mph from South

Location: Retz

Current Time: Jan 29, 2015 at 4:33:00 PM

Latest Report: Jan 29, 2015 at 3:00 PM


Visibility: N/A

Pressure: 29.41 "Hg

Humidity: 83%

Dew point: 32 °F

Location of HollabrunnLocation

Historic Weather in Hollabrunn — Graph

°F

Hollabrunn temperature yesterday

Maximum temperature yesterday: 41 °F (at 2:00 PM)
Minimum temperature yesterday: 30 °F (at 11:00 PM)
Average temperature yesterday: 35 °F

Past Weeks' High & Low Weather Summary

 TemperatureHumidityPressure
High45 °F (Jan 14, 4:00 PM)100% (Jan 20, 3:00 PM)30.35 "Hg (Jan 20, 3:00 PM)
Low28 °F (Jan 27, 12:00 AM)62% (Jan 28, 2:00 PM)29.41 "Hg (Jan 29, 3:00 PM)
Average35 °F87%30.00 "Hg
* Reported Jan 14 3:00 PM — Jan 29 3:00 PM, Hollabrunn, Weather by CustomWeather, © 2014

Note: Actual official high and low records may vary slightly from our data, if they occured in-between our weather recording intervals... More about our weather records

Advertising

Hollabrunn weather history for previous 24 hours

 ConditionsComfort  
Time TempWeatherWind HumidityBarometerVisibility
3:00 PM
Jan 29
37 °FChilly.3 mph83%29.41 "HgN/A
2:00 PM38 °FChilly.3 mph76%29.44 "HgN/A
1:00 PM38 °FPartly sunny.6 mph64%29.47 "Hg19 mi
12:00 PM37 °FChilly.5 mph68%29.50 "HgN/A
11:00 AM37 °FChilly.3 mph76%29.50 "HgN/A
10:00 AM36 °FChilly.3 mph82%29.50 "HgN/A
9:00 AM31 °FChilly.2 mph92%29.53 "HgN/A
8:00 AM31 °FChilly.2 mph93%29.53 "HgN/A
7:00 AM30 °FOvercast.2 mph93%29.50 "Hg5 mi
6:00 AM30 °FChilly.5 mph94%29.54 "HgN/A
5:00 AM30 °FChilly.3 mph93%29.55 "HgN/A
3:00 AM32 °FChilly.1 mph71%29.57 "HgN/A
2:00 AM32 °FChilly.5 mph74%29.59 "HgN/A
1:00 AM30 °FChilly.3 mph79%29.62 "HgN/A
12:00 AM30 °FChilly.2 mph79%29.67 "HgN/A
11:00 PM
Jan 28
30 °FChilly.3 mph81%29.73 "HgN/A
10:00 PM31 °FChilly.3 mph89%29.76 "HgN/A
9:00 PM31 °FChilly.5 mph88%29.80 "HgN/A
8:00 PM32 °FChilly.5 mph79%29.83 "HgN/A
7:00 PM33 °FPassing clouds.3 mph79%29.88 "Hg9 mi
6:00 PM35 °FChilly.3 mph69%29.91 "HgN/A
5:00 PM37 °FChilly.5 mph69%29.93 "HgN/A
4:00 PM38 °FChilly.6 mph65%29.93 "HgN/A
Weather by CustomWeather, © 2014

See weather overviewHow to use our weather pages